Terminal Aerodrome Forecast
Issued by NWS Columbia, SC

Home | Current Version | Previous Version | Text Only | Print | Product List | Glossary On
Versions: 1 2 3 4 5 6 7 8 9 10 11 12 13 14 15 16 17 18 19 20 21 22 23 24 25 26 27 28 29 30 31 32 33 34 35 36 37 38 39 40 41 42 43 44 45 46 47
000
FTAK31 PAJN 301209 AAA
TAFAGS
TAF AMD
PAGS 301209Z 3012/3112 VRB03KT 6SM -RA BR SCT005 OVC025
      TEMPO 3012/3015 5SM -RA BR
     FM301800 VRB05KT P6SM VCSH OVC050
     FM310600 32002KT P6SM BKN100
      AMD LTD TO CLD VIS AND WIND=

USA.gov is the U.S. government's official web portal to all federal, state and local government web resources and services.